Hourly Data Report for September 05, 2017

All times are specified in Local Standard Time (LST). Add 1 hour to adjust for Daylight Saving Time where and when it is observed.

ST. JOHN'S INTL A
NEWFOUNDLAND

47°37'07.000" N
52°45'09.000" W
140.50 m
8403505
71801
YYT

Download Data

Hourly Data (September 2017)
Hourly Data Report for September 5, 2017
Temp Definition
°C
Dew Point Temp Definition
°C
Rel Hum Definition
%
Wind Dir Definition
10's deg

Wind Spd Definition
km/h
Visibility Definition
km
Stn Press Definition
kPa
Hmdx Definition


Wind Chill Definition


Weather Definition


TIME
00:30 Legend Double Dagger 14.6 13.4 93 24 29 24.1 99.16     Drizzle
01:30 Legend Double Dagger 14.6 13.6 93 24 18 24.1 99.17     LegendNANA
02:30 Legend Double Dagger 14.7 13.7 93 23 24 24.1 99.24     Cloudy
03:30 Legend Double Dagger 14.6 13.7 94 25 30 24.1 99.27     LegendNANA
04:30 Legend Double Dagger 14.7 13.6 93 25 31 24.1 99.32     LegendNANA
05:30 Legend Double Dagger 14.2 13.3 94 26 27 24.1 99.42     Mainly Clear
06:30 Legend Double Dagger 14.7 13.3 92 25 36 24.1 99.49     LegendNANA
07:30 Legend Double Dagger 15.6 13.6 88 26 32 24.1 99.51     LegendNANA
08:30 Legend Double Dagger 15.9 13.6 86 26 34 24.1 99.61     Mostly Cloudy
09:30 Legend Double Dagger 17.8 12.9 73 27 41 24.1 99.67     LegendNANA
10:30 Legend Double Dagger 18.8 12.1 65 26 42 24.1 99.70     LegendNANA
11:30 Legend Double Dagger 20.1 12.4 61 27 34 24.1 99.77     Mainly Clear
12:30 Legend Double Dagger 20.6 12.5 59 26 35 24.1 99.80     LegendNANA
13:30 Legend Double Dagger 21.2 12.7 58 25 40 24.1 99.80     LegendNANA
14:30 Legend Double Dagger 21.3 13.2 60 25 34 24.1 99.85     Clear
15:30 Legend Double Dagger 20.8 14.0 65 26 31 24.1 99.91     LegendNANA
16:30 Legend Double Dagger 19.6 13.2 66 26 39 24.1 99.95     LegendNANA
17:30 Legend Double Dagger 18.7 12.6 68 26 34 24.1 99.97     Mainly Clear
18:30 Legend Double Dagger 17.2 12.6 74 25 32 24.1 99.99     LegendNANA
19:30 Legend Double Dagger 16.2 12.4 78 25 28 24.1 100.02     LegendNANA
20:30 Legend Double Dagger 16.3 11.4 72 25 37 24.1 100.06     Clear
21:30 Legend Double Dagger 15.6 12.2 80 26 41 24.1 100.08     LegendNANA
22:30 Legend Double Dagger 15.5 13.0 85 25 45 24.1 100.09     LegendNANA
23:30 Legend Double Dagger 16.2 14.8 91 26 46 24.1 100.10     Mainly Clear

Notes on Data Quality.

Legend

  • E = Estimated
  • M = Missing
  • NA = Not Available
  • ‡ = Partner data that is not subject to review by the National Climate Archives
Date modified: